User: anonymous   Login
Location: Unspecified
(0.0000°N, 0.0000°E)
Time: 03:57:54
(UTC+02:00)
Language:

Atlas Centaur 2 - Orbit

View from above orbital plane
View from above orbital plane
View from above satellite
View from above satellite

Ground track
Ground track

The orbit data is extracted from the following two-line orbital elements,

1 00694U 63047A   15147.57472181  .00000661  00000-0  75337-4 0  9994
2 00694 030.3590 337.1950 0592575 355.1281 042.5165 14.00962125577188
Epoch (UTC): 27 May 2015 13:47:35
Eccentricity: 0.0592575
inclination: 30.3590°
perigee height: 460 km
apogee height: 1321 km
right ascension of ascending node: 337.1950°
argument of perigee: 355.1281°
revolutions per day: 14.00962125
mean anomaly at epoch: 42.5165°
orbit number at epoch: 57718

The dashed part of the orbit path shows where the satellite is in the earth's shadow,  

DLR